[[{"header":{"parameterUnit":"m.s-1","parameterCategory":2,"la1":30.2991,"la2":30.254,"lo1":-89.0895,"lo2":-89.0444,"dy":0.0017,"dx":0.0017,"nx":28,"ny":28,"refTime":"2023-07-31T09:00:00:Z","depth":"0","parameterNumber":2,"parameterNumberName":"U-component_of_CURRENTS"},"data":[0,0,0,0,0,0,0,0,0,0,0,0,0,0,0,0,0,0,0,0,0,0,0,0,0,0,0,0,0,0,0,0,0,0,0,0,0,0,0,0,0,0,0,0,0,0,0,0,0,0,0,0,0,0,0,0,0,0,0.2552,0.2552,0,0.2513,0.2512,0.2511,0.2446,0.2446,0.2445,0.2444,0.2372,0.237,0.2369,0,0,0,0,0,0,0,0,0,0,0,0,0,0.2626,0.2625,0.2552,0.2552,0.2551,0.2513,0.2512,0.2511,0.2446,0.2445,0.2445,0.2444,0.2372,0.237,0.2369,0,0,0,0,0,0,0,0,0,0,0,0,0,0.2587,0.2624,0.2552,0.2518,0.2515,0.2513,0.2512,0.2511,0.2447,0.2445,0.2444,0.2443,0.2372,0.2371,0.2369,0.2379,0,0,0.2363,0.2362,0,0,0,0,0,0,0,0,0.2589,0.2583,0.2523,0.2521,0.2517,0.2488,0.2512,0.2467,0.2447,0.2467,0.2444,0.2443,0.2411,0.2406,0.2395,0.2376,0.2373,0.2363,0.2362,0.2361,0.236,0,0,0,0,0,0,0,0.2591,0.2585,0.2531,0.2523,0.252,0.2525,0.2517,0.2503,0.2442,0.2465,0.2462,0.2466,0.2409,0.2397,0.2393,0.2372,0.2363,0.2361,0.236,0.2359,0.2424,0.2427,0,0,0,0,0,0,0.2604,0.2587,0.2532,0.253,0.2557,0.2525,0.2516,0.2494,0.2442,0.2435,0.2467,0.2463,0.24,0.2395,0.239,0.2467,0.2361,0.2359,0.2358,0.2421,0.2425,0.2428,0,0,0,0,0,0,0.2606,0.2599,0.2534,0.2564,0.2556,0.2525,0.2501,0.2494,0.2487,0.2445,0.2435,0.2468,0.2399,0.2392,0.24,0.2461,0.2358,0.2357,0.2418,0.2423,0.2426,0.2578,0,0,0,0,0,0,0.2607,0.2599,0.259,0.2564,0.2555,0.2538,0.2503,0.2494,0.2493,0.2488,0.2443,0.2435,0.2398,0.2404,0.2399,0.2457,0.2355,0.2414,0.242,0.2425,0.257,0.2587,0.2602,0,0,0,0,0,0.261,0.2601,0.2588,0.2583,0.2542,0.254,0.2535,0.2507,0.2495,0.2495,0.2481,0.2436,0.2434,0.2404,0.2398,0.2457,0.2412,0.2418,0.2425,0.2563,0.2584,0.2602,0,0,0,0,0,0,0.2622,0.2593,0.2579,0.2559,0.2555,0.253,0.253,0.252,0.2508,0.2504,0.2463,0.2455,0.2494,0.2452,0.242,0.2493,0.242,0.2425,0.2527,0.2547,0.2563,0.2565,0.2354,0,0,0,0,0,0.2625,0.2609,0.2592,0.2578,0.2578,0.2559,0.2557,0.2543,0.2532,0.2524,0.2508,0.2498,0.2516,0.251,0.2508,0.2535,0.2527,0.2573,0.2589,0.2603,0.2603,0.269,0.2715,0.2449,0.2449,0.2449,0,0,0.263,0.261,0.2603,0.2581,0.2571,0.2591,0.2553,0.2555,0.2588,0.2521,0.2558,0.2554,0.2538,0.2582,0.2595,0.2551,0.2671,0.2611,0.2623,0.2615,0.27,0.2726,0.2749,0.2453,0.2452,0.2452,0,0,0.2641,0.2612,0.2611,0.2614,0.2611,0.2613,0.2622,0.2617,0.2626,0.2659,0.2645,0.268,0.2674,0.2695,0.2701,0.2804,0.2763,0.2804,0.2879,0.2966,0.2989,0.3008,0.3018,0.3038,0.2803,0.2804,0.2804,0,0.2653,0.2645,0.2615,0.2625,0.2647,0.2632,0.2666,0.2679,0.2686,0.2723,0.2686,0.2753,0.2736,0.2824,0.2858,0.2844,0.2857,0.2807,0.2989,0.3009,0.3026,0.3031,0.3051,0.2812,0.2811,0.281,0.2809,0,0.2665,0.2676,0.2681,0.2693,0.2711,0.2737,0.2761,0.28,0.2817,0.2838,0.2922,0.2911,0.2949,0.2966,0.2936,0.3066,0.3021,0.3011,0.2941,0.3063,0.3059,0.3077,0.2824,0.2821,0.2818,0.2816,0,0,0.265,0.2688,0.269,0.2731,0.2757,0.2781,0.2855,0.293,0.2995,0.3017,0.3112,0.315,0.3143,0.3149,0.3137,0.3197,0.3329,0.3156,0.3156,0.3166,0.3478,0.3173,0.3162,0.3363,0.3367,0.3371,0.3419,0,0.2678,0.2744,0.2743,0.2827,0.2879,0.2906,0.2977,0.3043,0.309,0.3177,0.3211,0.3273,0.3215,0.3238,0.3302,0.3324,0.3385,0.3312,0.3355,0.3355,0.3073,0.3176,0.2976,0.2979,0.3436,0.3439,0.3441,0,0.2683,0.2744,0.2839,0.2937,0.2956,0.2998,0.3126,0.3184,0.3296,0.333,0.34,0.3412,0.35,0.3436,0.3535,0.3493,0.35,0.3505,0.3508,0.3178,0.3083,0.2934,0.2993,0.294,0.3467,0.3465,0.3463,0,0.2715,0.2801,0.2899,0.2929,0.3034,0.3087,0.3139,0.3239,0.3292,0.3428,0.3462,0.357,0.3595,0.3664,0.3605,0.3615,0.3681,0.3704,0.3438,0.3415,0.3222,0.3172,0.323,0.3808,0.3808,0.3808,0.3808,0,0.2747,0.2815,0.2923,0.2977,0.3082,0.3132,0.3226,0.3298,0.3386,0.3445,0.3526,0.3566,0.3658,0.3673,0.367,0.3544,0.3731,0.3453,0.342,0.326,0.3215,0.3134,0.3116,0.381,0.3809,0.3809,0.3809,0,0.2752,0.2824,0.294,0.307,0.3097,0.3172,0.3232,0.3296,0.3372,0.3451,0.3491,0.3589,0.3578,0.3576,0.3651,0.3556,0.3386,0.3435,0.3174,0.3105,0.2766,0.2761,0.2597,0.2551,0.3194,0.3187,0.3181,0,0.275,0.2826,0.2988,0.3042,0.3089,0.3176,0.3221,0.3292,0.3336,0.3432,0.3469,0.3486,0.3447,0.336,0.3224,0.3115,0.3113,0.2862,0.2838,0.2703,0.2683,0.261,0.2586,0.2671,0.2661,0.2653,0.2647,0,0.2781,0.2854,0.2968,0.3073,0.3133,0.3168,0.3223,0.3236,0.3312,0.3338,0.3335,0.3311,0.3167,0.2937,0.2735,0.2661,0.2674,0.2686,0.269,0.2363,0.2158,0.2109,0.2645,0.2576,0.2583,0.2588,0.2592,0.2595,0.2804,0.2891,0.3038,0.3108,0.3152,0.3128,0.3087,0.3114,0.3109,0.3037,0.3143,0.2949,0.2742,0.2404,0.2312,0.1993,0.2119,0.1931,0.1966,0.1929,0.1774,0.2058,0.1841,0.1844,0.1846,0.1849,0.185,0,0.2847,0.2945,0.3041,0.3106,0.3065,0.3089,0.3062,0.2954,0.285,0.2765,0.268,0.2328,0.2055,0.1858,0.1519,0.1366,0.1373,0.1311,0.1298,0.1345,0.1739,0.1603,0.1148,0.1148,0.1148,0.1148,0.1149,0.1149,0.289,0.3008,0.3052,0.2995,0.2972,0.2821,0.2741,0.2591,0.2464,0.2124,0.1842,0.1744,0.157,0.1272,0.1027,0.0977,0.0995,0.0775,0.093,0.1326,0.1393,0.1456,0.1331,0.0826,0.0826,0.0482,0.0479,0.0477]},{"header":{"parameterUnit":"m.s-1","parameterCategory":2,"la1":30.2991,"la2":30.254,"lo1":-89.0895,"lo2":-89.0444,"dy":0.0017,"dx":0.0017,"nx":28,"ny":28,"refTime":"2023-07-31T09:00:00:Z","depth":"0","parameterNumber":3,"parameterNumberName":"V-component_of_CURRENTS"},"data":[0,0,0,0,0,0,0,0,0,0,0,0,0,0,0,0,0,0,0,0,0,0,0,0,0,0,0,0,0,0,0,0,0,0,0,0,0,0,0,0,0,0,0,0,0,0,0,0,0,0,0,0,0,0,0,0,0,0,0.0307,0.0307,0,0.0307,0.0306,0.0306,0.0293,0.0293,0.0293,0.0293,0.0297,0.0297,0.0297,0,0,0,0,0,0,0,0,0,0,0,0,0,0.0296,0.0296,0.0307,0.0307,0.0307,0.0307,0.0306,0.0306,0.0293,0.0293,0.0293,0.0293,0.0297,0.0297,0.0297,0,0,0,0,0,0,0,0,0,0,0,0,0,0.0296,0.0296,0.0307,0.0303,0.0303,0.0307,0.0306,0.0306,0.0293,0.0293,0.0293,0.0293,0.0297,0.0297,0.0298,0.0302,0,0,0.0298,0.0299,0,0,0,0,0,0,0,0,0.0296,0.0297,0.0303,0.0303,0.0303,0.0302,0.0304,0.0306,0.0293,0.0294,0.0293,0.0293,0.0301,0.0301,0.0297,0.0303,0.0303,0.0298,0.0299,0.0299,0.0299,0,0,0,0,0,0,0,0.0296,0.0297,0.0304,0.0303,0.0303,0.0301,0.0301,0.0304,0.0297,0.0294,0.0294,0.0298,0.03,0.0297,0.0298,0.0303,0.0298,0.0299,0.0299,0.0299,0.0354,0.0356,0,0,0,0,0,0,0.0302,0.0297,0.0304,0.0304,0.0302,0.0301,0.0301,0.03,0.0296,0.0296,0.0298,0.0297,0.0297,0.0297,0.0298,0.0324,0.0299,0.0299,0.0299,0.0353,0.0355,0.0356,0,0,0,0,0,0,0.0301,0.0302,0.0304,0.0303,0.0303,0.0302,0.0301,0.0301,0.0302,0.03,0.0299,0.0301,0.0297,0.0297,0.0309,0.0323,0.0299,0.0299,0.0352,0.0354,0.0355,0.0363,0,0,0,0,0,0,0.0301,0.0302,0.0302,0.0303,0.0304,0.0314,0.0302,0.0301,0.0306,0.0305,0.0303,0.0302,0.0297,0.0309,0.031,0.0323,0.03,0.035,0.0352,0.0355,0.0361,0.0365,0.0368,0,0,0,0,0,0.0301,0.0303,0.0302,0.0303,0.0304,0.0314,0.0314,0.0311,0.0306,0.0311,0.0311,0.0303,0.0325,0.031,0.0311,0.0324,0.0349,0.0352,0.0355,0.0359,0.0364,0.0368,0,0,0,0,0,0,0.0291,0.0303,0.0301,0.0304,0.0312,0.0313,0.0317,0.0316,0.0318,0.0318,0.0312,0.0312,0.0331,0.0331,0.0315,0.0351,0.0339,0.0342,0.0342,0.0347,0.035,0.0378,0.03,0,0,0,0,0,0.0292,0.03,0.0308,0.031,0.0316,0.0317,0.032,0.0321,0.0325,0.0325,0.0326,0.0333,0.0343,0.0347,0.0356,0.037,0.0403,0.0384,0.0388,0.039,0.0416,0.052,0.0536,0.0366,0.0366,0.0365,0,0,0.0288,0.0296,0.0299,0.031,0.0313,0.0322,0.0318,0.0328,0.0334,0.0327,0.0336,0.0344,0.0351,0.0368,0.0377,0.0369,0.0441,0.0394,0.0396,0.0421,0.0525,0.0542,0.0557,0.0368,0.0367,0.0367,0,0,0.0292,0.0294,0.0305,0.0315,0.0329,0.0329,0.0336,0.0344,0.0347,0.0361,0.036,0.0389,0.0389,0.0409,0.0414,0.0449,0.0459,0.0441,0.0477,0.0577,0.0593,0.0607,0.0604,0.0619,0.0441,0.0441,0.0441,0,0.0288,0.0301,0.0309,0.0323,0.033,0.0334,0.0344,0.035,0.0362,0.0384,0.0368,0.0427,0.0417,0.0468,0.0466,0.0459,0.0486,0.0453,0.0583,0.0598,0.0613,0.0608,0.0623,0.0441,0.0441,0.0441,0.0441,0,0.0304,0.0312,0.0321,0.0337,0.0343,0.0356,0.0365,0.0381,0.0386,0.0407,0.0466,0.0475,0.0522,0.0511,0.0487,0.058,0.0551,0.0576,0.0572,0.0631,0.062,0.0636,0.0442,0.0442,0.0442,0.0442,0,0,0.0304,0.0327,0.0332,0.0343,0.0354,0.0366,0.0379,0.0413,0.0465,0.0478,0.0564,0.0559,0.0596,0.0608,0.0604,0.0668,0.0744,0.0656,0.0661,0.065,0.0901,0.0823,0.0832,0.0802,0.0806,0.081,0.0828,0,0.0315,0.0343,0.0348,0.0369,0.0381,0.0391,0.0416,0.045,0.0492,0.0582,0.0619,0.0697,0.0623,0.067,0.0718,0.0775,0.0799,0.0733,0.085,0.0852,0.0776,0.0854,0.0833,0.0847,0.0844,0.0846,0.0848,0,0.0336,0.035,0.0373,0.0402,0.0412,0.0424,0.0491,0.052,0.0631,0.0678,0.0764,0.0818,0.0902,0.0855,0.0951,0.0916,0.0898,0.0916,0.0919,0.0868,0.0808,0.0803,0.0876,0.0886,0.0873,0.0871,0.087,0,0.0349,0.0371,0.0391,0.0399,0.0432,0.0449,0.0471,0.0556,0.0632,0.0771,0.0881,0.0966,0.1068,0.109,0.1072,0.1043,0.1182,0.1155,0.1045,0.1034,0.1054,0.1039,0.1161,0.1221,0.1221,0.1221,0.1221,0,0.037,0.0387,0.0401,0.0417,0.0459,0.0471,0.0562,0.0605,0.0747,0.0895,0.0946,0.1097,0.115,0.1221,0.1155,0.1146,0.1241,0.1073,0.1069,0.1043,0.1028,0.1067,0.1063,0.1221,0.1221,0.1221,0.1221,0,0.0391,0.0401,0.0428,0.0456,0.0469,0.0503,0.0605,0.071,0.0813,0.1023,0.1088,0.1252,0.1338,0.1313,0.1374,0.1274,0.1252,0.1204,0.1108,0.1093,0.0989,0.0985,0.1082,0.1125,0.1115,0.1114,0.1113,0,0.0409,0.0426,0.0457,0.0493,0.0505,0.0564,0.0643,0.0734,0.0868,0.112,0.1251,0.1394,0.1499,0.1499,0.1372,0.1244,0.1231,0.1122,0.107,0.1006,0.1002,0.0987,0.1017,0.1063,0.1061,0.106,0.1059,0,0.0441,0.0453,0.0477,0.0546,0.061,0.0705,0.0816,0.0926,0.1095,0.1261,0.1492,0.159,0.1587,0.1503,0.1309,0.121,0.1146,0.1091,0.1118,0.1053,0.0966,0.0996,0.0948,0.1049,0.105,0.1051,0.1051,0.1052,0.0471,0.0494,0.054,0.0605,0.0703,0.0851,0.0945,0.11,0.1294,0.154,0.1619,0.1722,0.1598,0.1351,0.1242,0.1036,0.1064,0.097,0.0985,0.0985,0.1009,0.0873,0.0917,0.0918,0.0918,0.0918,0.0918,0,0.0502,0.0538,0.0608,0.0709,0.0846,0.0883,0.1083,0.1198,0.1416,0.1574,0.1721,0.1648,0.1494,0.1314,0.1045,0.0954,0.0953,0.0928,0.0952,0.1004,0.0972,0.0952,0.0899,0.0899,0.0899,0.0899,0.0899,0.0899,0.0528,0.0583,0.0615,0.0816,0.0916,0.11,0.1216,0.137,0.1485,0.1619,0.1616,0.1619,0.1514,0.1166,0.0995,0.0956,0.1003,0.0923,0.0996,0.0992,0.0998,0.1005,0.0989,0.0944,0.0944,0.104,0.1041,0.1041]}],[{"header":{"parameterUnit":"m.s-1","parameterCategory":2,"la1":30.2991,"la2":30.254,"lo1":-89.0895,"lo2":-89.0444,"dy":0.0017,"dx":0.0017,"nx":28,"ny":28,"refTime":"2023-07-31T09:00:00:Z","depth":"2","parameterNumber":2,"parameterNumberName":"U-component_of_CURRENTS"},"data":[0,0,0,0,0,0,0,0,0,0,0,0,0,0,0,0,0,0,0,0,0,0,0,0,0,0,0,0,0,0,0,0,0,0,0,0,0,0,0,0,0,0,0,0,0,0,0,0,0,0,0,0,0,0,0,0,0,0,0.1878,0.1878,0,0.1897,0.1897,0.1898,0.1918,0.1918,0.1918,0.1918,0.1926,0.1926,0.1926,0,0,0,0,0,0,0,0,0,0,0,0,0,0.1938,0.1937,0.1878,0.1878,0.1878,0.1897,0.1898,0.1898,0.1918,0.1918,0.1918,0.1918,0.1926,0.1926,0.1926,0,0,0,0,0,0,0,0,0,0,0,0,0,0.1933,0.1936,0.1878,0.1888,0.1889,0.1897,0.1898,0.1898,0.1918,0.1918,0.1918,0.1918,0.1926,0.1926,0.1926,0.1927,0,0,0.1927,0.1927,0,0,0,0,0,0,0,0,0.1933,0.1931,0.1887,0.1888,0.1889,0.1903,0.1921,0.1906,0.1918,0.191,0.1918,0.1918,0.1915,0.1916,0.1924,0.1928,0.1928,0.1927,0.1927,0.1927,0.1928,0,0,0,0,0,0,0,0.1933,0.193,0.1889,0.1887,0.1888,0.1918,0.1917,0.1919,0.1914,0.1911,0.1912,0.1909,0.1916,0.1924,0.1924,0.1928,0.1927,0.1927,0.1928,0.1928,0.198,0.1981,0,0,0,0,0,0,0.192,0.193,0.1888,0.1889,0.1908,0.1917,0.1916,0.1901,0.1915,0.1916,0.1909,0.191,0.1923,0.1924,0.1925,0.2021,0.1927,0.1928,0.1928,0.1978,0.198,0.1981,0,0,0,0,0,0,0.1921,0.1916,0.1887,0.1909,0.1907,0.1915,0.1898,0.1901,0.1931,0.1913,0.1915,0.1939,0.1923,0.1924,0.1938,0.2017,0.1928,0.1928,0.1977,0.1979,0.198,0.2153,0,0,0,0,0,0,0.1923,0.1916,0.1922,0.1907,0.1905,0.191,0.1898,0.1901,0.1927,0.1929,0.1938,0.1938,0.1923,0.1938,0.1939,0.2016,0.1928,0.1975,0.1978,0.198,0.2145,0.216,0.2173,0,0,0,0,0,0.1925,0.1922,0.1921,0.1917,0.1905,0.191,0.1914,0.1922,0.1928,0.1949,0.1947,0.1939,0.1953,0.1939,0.1939,0.2019,0.1974,0.1977,0.198,0.2139,0.2157,0.2172,0,0,0,0,0,0,0.1945,0.1923,0.1922,0.1911,0.1921,0.1913,0.1923,0.1939,0.1956,0.195,0.1948,0.1948,0.1973,0.1965,0.1949,0.2034,0.1965,0.1968,0.2086,0.2103,0.2116,0.2075,0.1929,0,0,0,0,0,0.1952,0.1949,0.1936,0.1933,0.1929,0.1935,0.1945,0.1947,0.195,0.196,0.1987,0.199,0.1982,0.2018,0.199,0.206,0.2045,0.2108,0.2122,0.2134,0.2097,0.2204,0.2226,0.199,0.199,0.199,0,0,0.1965,0.1947,0.1951,0.194,0.1937,0.1947,0.1942,0.1947,0.1979,0.1955,0.2023,0.2015,0.1992,0.2045,0.2064,0.2065,0.2188,0.2138,0.2149,0.2103,0.221,0.2233,0.2254,0.1992,0.1992,0.1991,0,0,0.1973,0.1962,0.1961,0.1978,0.1972,0.1964,0.1974,0.1994,0.2024,0.2065,0.2052,0.2079,0.2117,0.2126,0.2126,0.2195,0.2218,0.2231,0.2326,0.2435,0.2456,0.2474,0.2472,0.2488,0.229,0.2291,0.2291,0,0.1999,0.1974,0.1969,0.1981,0.1985,0.1977,0.1984,0.2017,0.206,0.2095,0.2094,0.2159,0.2134,0.2207,0.223,0.2226,0.2278,0.2281,0.2459,0.2476,0.2492,0.2485,0.2501,0.2299,0.2298,0.2297,0.2296,0,0.1994,0.2005,0.2002,0.2006,0.2022,0.2019,0.2043,0.2094,0.212,0.2163,0.2241,0.2243,0.2311,0.2319,0.2288,0.242,0.2411,0.2434,0.243,0.2528,0.2511,0.2526,0.2312,0.2308,0.2306,0.2304,0,0,0.198,0.1993,0.2,0.2033,0.2025,0.2053,0.2086,0.2124,0.2185,0.2265,0.2373,0.2372,0.2444,0.2442,0.2478,0.2553,0.2684,0.2575,0.2577,0.259,0.2898,0.2626,0.2614,0.2814,0.2818,0.2821,0.2837,0,0.1974,0.1989,0.1994,0.2053,0.206,0.2087,0.212,0.2178,0.2235,0.2359,0.2411,0.2492,0.249,0.2557,0.2656,0.2662,0.2734,0.2672,0.2779,0.2777,0.2545,0.2625,0.2442,0.2421,0.285,0.2852,0.2854,0,0.1962,0.1971,0.1992,0.2071,0.2077,0.2144,0.2214,0.2249,0.2373,0.2423,0.2571,0.2637,0.2764,0.2742,0.2882,0.2884,0.2895,0.2879,0.2883,0.2565,0.2532,0.2392,0.2429,0.2877,0.2875,0.2873,0.2872,0,0.1925,0.1997,0.2008,0.2037,0.2098,0.2172,0.2218,0.2301,0.2332,0.2517,0.2583,0.2772,0.2883,0.2969,0.2953,0.2986,0.3041,0.3094,0.2837,0.2816,0.2625,0.2579,0.3165,0.3165,0.3165,0.3165,0.3165,0,0.1889,0.1948,0.2042,0.206,0.2131,0.2205,0.228,0.235,0.2456,0.2518,0.2676,0.2768,0.2962,0.3027,0.3013,0.2936,0.3124,0.2815,0.2814,0.2669,0.2629,0.2992,0.2972,0.3165,0.3165,0.3165,0.3165,0,0.1888,0.1897,0.1966,0.2068,0.2109,0.2195,0.2295,0.2347,0.2452,0.256,0.2626,0.2825,0.2893,0.2948,0.303,0.2971,0.2907,0.2818,0.2554,0.2516,0.2601,0.2589,0.2594,0.2584,0.2577,0.257,0.2565,0,0.1893,0.1899,0.1983,0.1995,0.2075,0.2183,0.2204,0.2319,0.2376,0.2554,0.2612,0.2744,0.2773,0.2735,0.2652,0.2545,0.268,0.228,0.2261,0.2549,0.255,0.255,0.2549,0.2096,0.2087,0.208,0.2074,0,0.1875,0.1896,0.1917,0.1964,0.2031,0.2085,0.2194,0.2221,0.2349,0.2426,0.2512,0.2543,0.2516,0.2341,0.2184,0.2102,0.2286,0.2118,0.2586,0.2217,0.2068,0.2071,0.2091,0.201,0.2016,0.2021,0.2024,0.2027,0.1845,0.1882,0.187,0.1946,0.1993,0.2051,0.2057,0.2122,0.2165,0.2222,0.2319,0.2231,0.2208,0.1848,0.1719,0.1617,0.1792,0.1729,0.176,0.1796,0.1683,0.1524,0.1338,0.1341,0.1343,0.1345,0.1347,0,0.1793,0.1832,0.1851,0.1906,0.1954,0.2029,0.206,0.1996,0.1989,0.1975,0.1951,0.1684,0.1501,0.1455,0.1199,0.1112,0.1201,0.1056,0.1217,0.1278,0.1333,0.1207,0.0731,0.0729,0.0728,0.0726,0,0,0.175,0.1733,0.1776,0.1841,0.193,0.1934,0.1939,0.1812,0.1724,0.1549,0.1429,0.1424,0.1412,0.1084,0.1,0.0843,0.1073,0.0785,0.1278,0.1534,0.1589,0.1706,0.1572,0,0,0,0,0]},{"header":{"parameterUnit":"m.s-1","parameterCategory":2,"la1":30.2991,"la2":30.254,"lo1":-89.0895,"lo2":-89.0444,"dy":0.0017,"dx":0.0017,"nx":28,"ny":28,"refTime":"2023-07-31T09:00:00:Z","depth":"2","parameterNumber":3,"parameterNumberName":"V-component_of_CURRENTS"},"data":[0,0,0,0,0,0,0,0,0,0,0,0,0,0,0,0,0,0,0,0,0,0,0,0,0,0,0,0,0,0,0,0,0,0,0,0,0,0,0,0,0,0,0,0,0,0,0,0,0,0,0,0,0,0,0,0,0,0,0.0062,0.0062,0,0.0061,0.0061,0.0061,0.007,0.007,0.007,0.007,0.0092,0.0092,0.0092,0,0,0,0,0,0,0,0,0,0,0,0,0,0.0054,0.0054,0.0062,0.0062,0.0062,0.0061,0.0061,0.0061,0.007,0.007,0.007,0.007,0.0092,0.0092,0.0092,0,0,0,0,0,0,0,0,0,0,0,0,0,0.0056,0.0054,0.0062,0.0066,0.0066,0.0061,0.0061,0.0061,0.0069,0.007,0.007,0.007,0.0091,0.0092,0.0093,0.009,0,0,0.0094,0.0094,0,0,0,0,0,0,0,0,0.0056,0.0056,0.0066,0.0066,0.0066,0.0066,0.0066,0.0072,0.0069,0.0069,0.007,0.0071,0.0085,0.0086,0.0085,0.0091,0.0091,0.0094,0.0095,0.0095,0.0095,0,0,0,0,0,0,0,0.0055,0.0056,0.0062,0.0066,0.0066,0.0061,0.0062,0.0067,0.0076,0.0069,0.0069,0.0069,0.0085,0.0084,0.0086,0.0092,0.0094,0.0095,0.0095,0.0095,0.0117,0.0117,0,0,0,0,0,0,0.0056,0.0056,0.0062,0.0062,0.0061,0.0061,0.0062,0.0066,0.0075,0.0076,0.0068,0.0069,0.0083,0.0085,0.0086,0.0092,0.0095,0.0095,0.0096,0.0117,0.0117,0.0117,0,0,0,0,0,0,0.0055,0.0056,0.0062,0.0058,0.0059,0.0061,0.0065,0.0065,0.0071,0.0074,0.0076,0.0074,0.0084,0.0086,0.0095,0.0093,0.0096,0.0096,0.0117,0.0117,0.0117,0.0099,0,0,0,0,0,0,0.0055,0.0056,0.0058,0.0059,0.0059,0.0066,0.0065,0.0065,0.0069,0.0071,0.008,0.0082,0.0084,0.0094,0.0096,0.0094,0.0097,0.0116,0.0117,0.0117,0.0099,0.0099,0.0098,0,0,0,0,0,0.0055,0.0058,0.0059,0.0059,0.0062,0.0066,0.0067,0.0069,0.007,0.0075,0.0079,0.0082,0.0098,0.0095,0.0096,0.0095,0.0116,0.0117,0.0117,0.01,0.0099,0.0098,0,0,0,0,0,0,0.0053,0.0059,0.006,0.0064,0.0068,0.0068,0.007,0.0072,0.0078,0.0079,0.0083,0.0085,0.0092,0.0099,0.0095,0.0104,0.0108,0.0109,0.0094,0.0094,0.0093,0.0122,0.0097,0,0,0,0,0,0.0053,0.0062,0.0063,0.0068,0.0068,0.0069,0.0071,0.0073,0.0077,0.0081,0.0089,0.0095,0.0094,0.0099,0.0104,0.0109,0.0148,0.0111,0.011,0.0109,0.0135,0.0241,0.0253,0.0119,0.0119,0.0119,0,0,0.0053,0.0058,0.0062,0.0068,0.0069,0.0068,0.0072,0.0076,0.0069,0.0082,0.0083,0.0094,0.0096,0.0099,0.0103,0.0105,0.0149,0.011,0.0109,0.0136,0.0243,0.0256,0.0268,0.012,0.0119,0.0119,0,0,0.0059,0.0061,0.007,0.0074,0.0079,0.0071,0.0074,0.0079,0.0076,0.0076,0.0083,0.011,0.0097,0.0117,0.0117,0.0123,0.0144,0.0106,0.0126,0.0228,0.024,0.0252,0.0241,0.0253,0.0106,0.0106,0.0106,0,0.0058,0.0068,0.0073,0.0082,0.0078,0.0073,0.0072,0.0064,0.0073,0.0079,0.0074,0.0117,0.0113,0.0143,0.0131,0.0125,0.015,0.0123,0.023,0.0243,0.0256,0.0243,0.0256,0.0105,0.0105,0.0105,0.0106,0,0.0071,0.0078,0.0082,0.0086,0.0082,0.0082,0.0068,0.0069,0.0059,0.0065,0.0101,0.0124,0.0169,0.0149,0.0129,0.0207,0.0178,0.0217,0.0235,0.0269,0.0251,0.0264,0.0104,0.0104,0.0105,0.0105,0,0,0.0074,0.0087,0.009,0.0086,0.0083,0.0076,0.0063,0.0058,0.0078,0.0088,0.0145,0.0135,0.019,0.0198,0.0209,0.0271,0.0335,0.0271,0.0277,0.0263,0.0483,0.0406,0.0412,0.0402,0.0406,0.0409,0.0406,0,0.008,0.0083,0.0094,0.0086,0.0075,0.0073,0.0069,0.0066,0.0079,0.0136,0.0173,0.0233,0.0193,0.0246,0.0301,0.0372,0.0384,0.0327,0.0451,0.0453,0.0387,0.0433,0.0428,0.0423,0.042,0.0422,0.0424,0,0.0091,0.0083,0.0071,0.0077,0.0077,0.0078,0.0085,0.0086,0.0147,0.0176,0.026,0.0317,0.0416,0.0392,0.0515,0.0485,0.0467,0.0487,0.049,0.045,0.0406,0.0406,0.0449,0.0447,0.0445,0.0444,0.0442,0,0.0065,0.0075,0.0054,0.0053,0.0053,0.0059,0.0065,0.0101,0.0143,0.0241,0.0343,0.0435,0.0567,0.0593,0.062,0.0592,0.0739,0.072,0.06,0.0589,0.0629,0.0616,0.0769,0.0769,0.0769,0.0769,0.0769,0,0.006,0.0054,0.0044,0.0032,0.0033,0.0043,0.0086,0.0108,0.0221,0.0346,0.0394,0.056,0.0643,0.0736,0.068,0.0696,0.0794,0.0616,0.0617,0.0608,0.0594,0.067,0.0659,0.0769,0.0769,0.0769,0.0769,0,0.0045,0.0038,0.002,0.0014,0.0019,0.0019,0.0107,0.0176,0.0267,0.046,0.0524,0.0714,0.084,0.083,0.0906,0.0817,0.0799,0.0742,0.0659,0.0651,0.054,0.0527,0.0635,0.0633,0.0632,0.063,0.0629,0,0.0048,0.0024,-0.0002,0.001,0.0017,0.0038,0.0093,0.0174,0.0299,0.0575,0.0714,0.0885,0.1012,0.1028,0.0927,0.0793,0.0774,0.0661,0.061,0.0553,0.0543,0.0533,0.0523,0.0614,0.0613,0.0612,0.0611,0,0.0036,0.0015,-0.0007,0.0016,0.0059,0.013,0.024,0.0353,0.0533,0.072,0.1007,0.1115,0.1129,0.1059,0.0851,0.0756,0.0688,0.0631,0.0699,0.0635,0.0531,0.0521,0.0513,0.0602,0.0603,0.0604,0.0604,0.0605,0.003,0.0022,0.0006,0.004,0.0113,0.0277,0.0392,0.0561,0.0782,0.1081,0.1156,0.1263,0.116,0.0892,0.0756,0.0598,0.0611,0.0524,0.053,0.0536,0.0521,0.042,0.046,0.046,0.046,0.046,0.046,0,0.0032,0.0033,0.0058,0.0141,0.0292,0.0321,0.0542,0.0691,0.0987,0.1125,0.1288,0.1142,0.1017,0.0861,0.0618,0.047,0.0479,0.0414,0.0465,0.0475,0.0483,0.0467,0.0391,0.039,0.039,0.0389,0,0,0.0035,0.0046,0.0067,0.0293,0.0414,0.0644,0.0803,0.0984,0.109,0.1226,0.1224,0.1188,0.1014,0.0807,0.0649,0.052,0.0523,0.0486,0.0557,0.0647,0.0656,0.0561,0.0548,0,0,0,0,0]}],[{"header":{"parameterUnit":"m.s-1","parameterCategory":2,"la1":30.2991,"la2":30.254,"lo1":-89.0895,"lo2":-89.0444,"dy":0.0017,"dx":0.0017,"nx":28,"ny":28,"refTime":"2023-07-31T09:00:00:Z","depth":"4","parameterNumber":2,"parameterNumberName":"U-component_of_CURRENTS"},"data":[0,0,0,0,0,0,0,0,0,0,0,0,0,0,0,0,0,0,0,0,0,0,0,0,0,0,0,0,0,0,0,0,0,0,0,0,0,0,0,0,0,0,0,0,0,0,0,0,0,0,0,0,0,0,0,0,0,0,0.0752,0.0753,0,0.0786,0.0785,0.0785,0.0821,0.0823,0.0824,0.0825,0.0862,0.0862,0.0862,0,0,0,0,0,0,0,0,0,0,0,0,0,0.0724,0.0724,0.0752,0.0753,0.0754,0.0786,0.0785,0.0785,0.0821,0.0823,0.0824,0.0825,0.0862,0.0862,0.0862,0,0,0,0,0,0,0,0,0,0,0,0,0,0.0738,0.0723,0.0752,0.0781,0.0784,0.0786,0.0785,0.0785,0.0821,0.0823,0.0824,0.0826,0.0862,0.0862,0.0862,0.0827,0,0,0.0861,0.0861,0,0,0,0,0,0,0,0,0.0737,0.0738,0.0775,0.0779,0.0783,0.0807,0.079,0.0802,0.082,0.08,0.0825,0.0827,0.0847,0.0848,0.0841,0.0829,0.083,0.0861,0.0861,0.0861,0.0861,0,0,0,0,0,0,0,0.0736,0.0737,0.0758,0.0777,0.0781,0.0794,0.0797,0.0791,0.0808,0.0802,0.0806,0.082,0.0848,0.0841,0.0842,0.0831,0.0861,0.0861,0.0861,0.0861,0.0889,0.089,0,0,0,0,0,0,0.0743,0.0736,0.0757,0.076,0.0771,0.0794,0.0797,0.0792,0.0808,0.0814,0.0819,0.0822,0.084,0.0842,0.0844,0.0855,0.0861,0.0861,0.0861,0.0888,0.0889,0.089,0,0,0,0,0,0,0.0742,0.0744,0.0756,0.0756,0.0759,0.0793,0.0787,0.0792,0.0813,0.0822,0.0828,0.0839,0.0842,0.0844,0.0861,0.0856,0.0861,0.0861,0.0888,0.0889,0.089,0.0846,0,0,0,0,0,0,0.0741,0.0743,0.0749,0.0755,0.076,0.0761,0.0786,0.0792,0.0821,0.0826,0.0841,0.0845,0.0843,0.0861,0.0861,0.0855,0.0861,0.0886,0.0888,0.089,0.0846,0.0845,0.0845,0,0,0,0,0,0.0739,0.0742,0.0748,0.0753,0.0764,0.0761,0.0763,0.0789,0.082,0.0817,0.0842,0.0846,0.0871,0.0861,0.086,0.0855,0.0886,0.0888,0.0889,0.0846,0.0845,0.0845,0,0,0,0,0,0,0.074,0.0746,0.0754,0.0761,0.0763,0.077,0.0786,0.0801,0.0815,0.0835,0.0845,0.0849,0.0859,0.0873,0.0861,0.0874,0.0883,0.0885,0.0851,0.085,0.0849,0.0875,0.0861,0,0,0,0,0,0.074,0.0746,0.0746,0.0757,0.076,0.0775,0.0786,0.0798,0.0812,0.0822,0.0827,0.0848,0.086,0.087,0.0872,0.0874,0.0928,0.0878,0.0877,0.0876,0.0901,0.1024,0.1037,0.0896,0.0896,0.0896,0,0,0.0742,0.0755,0.0756,0.0758,0.0769,0.0751,0.0785,0.0802,0.0782,0.0823,0.0807,0.0837,0.0861,0.086,0.0868,0.0875,0.0929,0.0879,0.0877,0.0903,0.1028,0.1042,0.1054,0.0898,0.0897,0.0897,0,0,0.0742,0.0761,0.0753,0.0749,0.0767,0.0765,0.0774,0.0775,0.0774,0.0769,0.0797,0.0841,0.0835,0.0858,0.087,0.0875,0.0918,0.0872,0.0889,0.1006,0.102,0.1032,0.1049,0.1064,0.0876,0.0876,0.0876,0,0.0746,0.0723,0.0752,0.0739,0.0725,0.0769,0.0733,0.0736,0.074,0.0745,0.0764,0.083,0.0838,0.0876,0.0876,0.0871,0.0925,0.088,0.1006,0.102,0.1034,0.105,0.1066,0.0874,0.0875,0.0875,0.0875,0,0.0719,0.0702,0.0703,0.0686,0.0679,0.0663,0.066,0.0668,0.0688,0.0697,0.0745,0.0791,0.0857,0.0848,0.0858,0.0949,0.0945,0.0985,0.1007,0.1046,0.1058,0.1076,0.0872,0.0872,0.0873,0.0873,0,0,0.0707,0.0678,0.0679,0.0639,0.0638,0.0619,0.0612,0.0601,0.0633,0.0663,0.0711,0.0746,0.0837,0.0863,0.0905,0.0993,0.1092,0.1033,0.104,0.1044,0.1302,0.1113,0.1114,0.1175,0.1179,0.1183,0.1246,0,0.0662,0.0591,0.0604,0.0536,0.0477,0.0517,0.0517,0.0535,0.0572,0.0636,0.0727,0.079,0.0822,0.0887,0.0989,0.1094,0.1152,0.1068,0.127,0.1274,0.1101,0.1134,0.1197,0.126,0.1264,0.1267,0.1269,0,0.0609,0.0558,0.0463,0.0428,0.042,0.0424,0.0446,0.046,0.0573,0.0617,0.0743,0.0822,0.0964,0.0995,0.1215,0.1173,0.1236,0.1295,0.13,0.1166,0.1123,0.1234,0.1303,0.13,0.1298,0.1296,0.1293,0,0.0515,0.046,0.0368,0.0345,0.0329,0.0344,0.0388,0.0473,0.0516,0.0647,0.0724,0.0892,0.1028,0.1169,0.1284,0.1285,0.1501,0.152,0.1383,0.1366,0.1538,0.1525,0.1655,0.1655,0.1655,0.1654,0.1654,0,0.0426,0.0367,0.0337,0.0279,0.0265,0.0298,0.0357,0.0419,0.0564,0.0658,0.0758,0.0863,0.1099,0.1231,0.1314,0.1395,0.1537,0.139,0.1393,0.1503,0.1487,0.1545,0.1532,0.1657,0.1656,0.1656,0.1655,0,0.0333,0.0309,0.0196,0.0171,0.021,0.0208,0.0363,0.0426,0.0553,0.0696,0.0746,0.0913,0.1074,0.1208,0.1424,0.1422,0.1502,0.147,0.1511,0.1515,0.1271,0.1255,0.1356,0.135,0.1345,0.1341,0.1338,0,0.028,0.0199,0.0115,0.0115,0.0127,0.0186,0.0276,0.042,0.0511,0.0709,0.0782,0.0939,0.1041,0.1194,0.1315,0.1404,0.139,0.1389,0.1386,0.1259,0.1253,0.1244,0.1235,0.133,0.1329,0.1328,0.1327,0,0.0145,0.0101,-0.0004,0.0011,0.0069,0.0132,0.028,0.0347,0.0544,0.0655,0.0812,0.0879,0.1024,0.1145,0.1189,0.1254,0.1386,0.134,0.1351,0.1348,0.1229,0.1226,0.1223,0.131,0.1313,0.1314,0.1315,0,0.0057,-0.005,-0.0147,-0.0104,-0.003,0.0081,0.0158,0.0322,0.0442,0.0698,0.0744,0.0894,0.1047,0.106,0.1112,0.1143,0.1147,0.1129,0.1151,0.117,0.1073,0.0893,0.0884,0,0,0,0,0,-0.0038,-0.0152,-0.0192,-0.0173,-0.0079,0.001,0.0171,0.0265,0.048,0.0584,0.0679,0.0795,0.0879,0.0926,0.0927,0.0974,0.1109,0.096,0.1089,0.1218,0.1238,0.1136,0,0,0,0,0,0,-0.0105,-0.0234,-0.0269,-0.0192,-0.0125,-0.0003,0.0102,0.0235,0.0321,0.0525,0.0586,0.0717,0.081,0.0892,0.0909,0.0921,0.0976,0.105,0.1047,0.1208,0.1225,0.124,0.1143,0,0,0,0,0]},{"header":{"parameterUnit":"m.s-1","parameterCategory":2,"la1":30.2991,"la2":30.254,"lo1":-89.0895,"lo2":-89.0444,"dy":0.0017,"dx":0.0017,"nx":28,"ny":28,"refTime":"2023-07-31T09:00:00:Z","depth":"4","parameterNumber":3,"parameterNumberName":"V-component_of_CURRENTS"},"data":[0,0,0,0,0,0,0,0,0,0,0,0,0,0,0,0,0,0,0,0,0,0,0,0,0,0,0,0,0,0,0,0,0,0,0,0,0,0,0,0,0,0,0,0,0,0,0,0,0,0,0,0,0,0,0,0,0,0,0.002,0.002,0,0.0013,0.0013,0.0013,0.0005,0.0005,0.0005,0.0006,0.002,0.002,0.002,0,0,0,0,0,0,0,0,0,0,0,0,0,0.001,0.001,0.002,0.002,0.002,0.0013,0.0013,0.0013,0.0005,0.0005,0.0006,0.0006,0.002,0.002,0.002,0,0,0,0,0,0,0,0,0,0,0,0,0,0.0008,0.001,0.002,0.0017,0.0016,0.0013,0.0013,0.0013,0.0005,0.0005,0.0006,0.0006,0.002,0.002,0.0021,0.0023,0,0,0.0022,0.0022,0,0,0,0,0,0,0,0,0.0008,0.0008,0.0017,0.0017,0.0017,0.0011,0.0015,0.0018,0.0005,0.0008,0.0006,0.0006,0.002,0.002,0.0017,0.0023,0.0024,0.0022,0.0023,0.0023,0.0023,0,0,0,0,0,0,0,0.0008,0.0009,0.0016,0.0017,0.0017,0.001,0.001,0.0015,0.0013,0.0008,0.0008,0.0009,0.002,0.0016,0.0017,0.0024,0.0022,0.0023,0.0023,0.0023,0.0042,0.0042,0,0,0,0,0,0,0.0013,0.0009,0.0016,0.0016,0.0014,0.001,0.001,0.0012,0.0012,0.0013,0.0009,0.0009,0.0015,0.0016,0.0017,0.0044,0.0023,0.0023,0.0024,0.0041,0.0042,0.0042,0,0,0,0,0,0,0.0013,0.0014,0.0016,0.0013,0.0013,0.0011,0.0013,0.0012,0.001,0.0014,0.0014,0.0009,0.0015,0.0017,0.0023,0.0044,0.0023,0.0024,0.0041,0.0041,0.0042,0.0083,0,0,0,0,0,0,0.0013,0.0014,0.0015,0.0014,0.0014,0.0019,0.0013,0.0012,0.0012,0.0011,0.0014,0.0015,0.0015,0.0023,0.0024,0.0044,0.0024,0.0041,0.0041,0.0042,0.0081,0.0084,0.0087,0,0,0,0,0,0.0012,0.0018,0.0015,0.0016,0.0016,0.0019,0.0018,0.0015,0.0012,0.0013,0.0013,0.0015,0.0026,0.0023,0.0025,0.0046,0.0041,0.0041,0.0042,0.008,0.0084,0.0087,0,0,0,0,0,0,0.0013,0.0017,0.0014,0.002,0.0021,0.0019,0.002,0.0017,0.0016,0.0016,0.0017,0.0018,0.0032,0.0028,0.0025,0.0049,0.0034,0.0035,0.0062,0.0066,0.0069,0.008,0.0025,0,0,0,0,0,0.0014,0.002,0.002,0.0025,0.0025,0.0021,0.0021,0.002,0.002,0.002,0.0025,0.0027,0.0034,0.004,0.0043,0.0057,0.0042,0.007,0.0073,0.0076,0.0084,0.007,0.0072,0.0043,0.0043,0.0043,0,0,0.0016,0.0019,0.0022,0.0025,0.0024,0.0039,0.0021,0.0024,0.0049,0.0022,0.0052,0.0037,0.0038,0.0054,0.006,0.0055,0.0075,0.0076,0.0079,0.0086,0.007,0.0073,0.0076,0.0043,0.0043,0.0043,0,0,0.0028,0.0024,0.0035,0.0042,0.0044,0.0047,0.0049,0.005,0.0062,0.0078,0.0068,0.0062,0.0076,0.008,0.0084,0.0103,0.0088,0.0103,0.0134,0.0121,0.0123,0.0125,0.0105,0.0105,0.0109,0.0109,0.0109,0,0.0031,0.0051,0.0038,0.0055,0.0076,0.0055,0.0085,0.0091,0.0097,0.011,0.0095,0.0094,0.0093,0.0112,0.012,0.0113,0.0096,0.0124,0.0125,0.0127,0.0129,0.0108,0.0107,0.0111,0.0111,0.011,0.011,0,0.0056,0.0078,0.0086,0.0109,0.0122,0.0143,0.0156,0.0169,0.0172,0.0172,0.0181,0.0158,0.0158,0.0154,0.0148,0.016,0.0141,0.0128,0.0119,0.0134,0.0111,0.0109,0.0114,0.0113,0.0112,0.0112,0,0,0.006,0.0099,0.0105,0.0141,0.0161,0.0182,0.022,0.0251,0.0268,0.0257,0.0273,0.0271,0.0232,0.0233,0.0209,0.0196,0.019,0.0171,0.017,0.0157,0.0153,0.0146,0.0144,0.0175,0.0175,0.0176,0.0131,0,0.0092,0.0149,0.016,0.0229,0.0266,0.0278,0.0317,0.0336,0.0332,0.0333,0.0303,0.0294,0.0272,0.0253,0.0242,0.0201,0.0189,0.0203,0.0136,0.0134,0.0131,0.0144,0.0176,0.013,0.0129,0.0129,0.0129,0,0.0114,0.0162,0.0237,0.0313,0.0329,0.0365,0.0421,0.0451,0.0439,0.0427,0.0397,0.035,0.0331,0.0294,0.0249,0.0257,0.0216,0.0177,0.0175,0.0156,0.0126,0.0111,0.0126,0.0126,0.0127,0.0127,0.0127,0,0.0138,0.0216,0.029,0.0318,0.039,0.0435,0.0468,0.0478,0.0498,0.047,0.0442,0.0408,0.0381,0.0328,0.0256,0.0251,0.019,0.0172,0.0125,0.0123,0.0124,0.0122,0.0137,0.0138,0.0138,0.0138,0.0138,0,0.0172,0.0227,0.0313,0.0358,0.0449,0.0479,0.0538,0.0555,0.0546,0.0546,0.0485,0.0449,0.0387,0.0334,0.0268,0.0199,0.0204,0.0136,0.0116,0.014,0.0141,0.0122,0.0121,0.0136,0.0136,0.0137,0.0137,0,0.0173,0.0226,0.0325,0.0431,0.0463,0.053,0.0588,0.061,0.0594,0.0583,0.0569,0.0496,0.0427,0.0354,0.0268,0.0222,0.0145,0.0116,0.0149,0.013,0.0082,0.0083,0.0062,0.0062,0.0061,0.0061,0.0061,0,0.0177,0.0229,0.0375,0.0438,0.0491,0.0575,0.0616,0.0639,0.0638,0.0598,0.0581,0.0513,0.0455,0.0337,0.0258,0.0148,0.0128,0.0093,0.009,0.0093,0.0076,0.0078,0.008,0.006,0.006,0.006,0.006,0,0.0197,0.0252,0.0338,0.0451,0.0532,0.0605,0.0654,0.0659,0.0661,0.0655,0.0589,0.0507,0.0431,0.0335,0.0262,0.0172,0.012,0.0088,0.0088,0.0085,0.009,0.0074,0.0076,0.0058,0.0058,0.0059,0.0059,0,0.0207,0.027,0.0365,0.0459,0.0559,0.0601,0.0636,0.0641,0.0648,0.0615,0.0596,0.0499,0.0468,0.0345,0.0261,0.0194,0.0167,0.0141,0.0138,0.0139,0.0173,0.0192,0.0181,0,0,0,0,0,0.0222,0.0268,0.0351,0.0458,0.0546,0.0589,0.0639,0.0653,0.0665,0.0635,0.0618,0.0541,0.0415,0.0345,0.0278,0.0232,0.0142,0.0149,0.0108,0.005,0.0052,0.0079,0,0,0,0,0,0,0.0229,0.0307,0.0336,0.0412,0.0481,0.0552,0.0595,0.0603,0.0579,0.0592,0.0529,0.0521,0.04,0.0464,0.0277,0.0253,0.0216,0.01,0.0098,0.0049,0.0051,0.0052,0.0081,0,0,0,0,0]}]]